FW9225 Weather Reports


time (UTC)temp
F
wind
direction
speed
knots
gust
knots
rain 1hr
in
rain 24hr
in
rain mn
in
humidity
%
barometer
mb
20260510120037 53 0 0.0 1.7 0.00 0.04 0.01 96 1012.5
20260510114536 52 0 0.9 1.7 0.00 0.04 0.01 96 1012.2
20260510113045 52 141 0.0 0.9 0.00 0.04 0.01 96 1012.1
20260510111552 51 0 0.0 1.7 0.00 0.04 0.01 96 1011.9
20260510110042 51 141 0.0 2.6 0.00 0.04 0.01 96 1011.9
20260510104547 50 145 0.9 2.6 0.00 0.04 0.01 96 1011.8
20260510103041 50 0 0.0 0.9 0.00 0.04 0.01 95 1011.5
20260510101543 50 0 0.0 0.0 0.01 0.04 0.01 95 1011.4
20260510100042 49 138 0.0 0.9 0.01 0.04 0.01 95 1011.2
20260510094538 49 136 0.0 1.7 0.01 0.04 0.01 95 1011.3
20260510093043 49 150 0.0 1.7 0.01 0.04 0.01 95 1011.1
20260510091537 49 146 0.0 1.7 0.00 0.03 0.00 95 1010.8
20260510090049 49 0 0.0 3.5 0.00 0.03 0.00 95 1011.1
20260510084549 49 182 0.9 5.2 0.00 0.03 0.00 95 1011.2
20260510083047 49 146 2.6 7.8 0.00 0.03 0.00 95 1010.8
20260510081556 48 175 4.3 11.3 0.00 0.03 0.00 96 1011.0
20260510080037 47 0 0.0 0.0 0.00 0.03 0.00 94 1010.5
20260510074553 48 0 0.0 0.0 0.00 0.03 0.00 95 1010.4
20260510073054 49 0 0.0 1.7 0.00 0.03 0.00 95 1010.4
20260510071539 49 0 0.0 0.0 0.00 0.03 0.00 95 1010.3
20260510070041 49 0 0.0 0.9 0.00 0.03 0.00 95 1010.1
20260510064550 47 145 0.0 0.0 0.00 0.03 0.00 95 1009.9
20260510063045 47 0 0.0 0.0 0.00 0.03 0.00 94 1009.9
20260510061547 48 0 0.0 0.0 0.00 0.03 0.00 94 1010.0
20260510060048 49 0 0.0 0.9 0.00 0.03 0.00 95 1010.1
20260510054540 47 0 0.0 0.0 0.00 0.03 0.00 95 1010.2
20260510053046 47 0 0.0 0.0 0.00 0.03 0.00 94 1010.4
20260510051550 48 0 0.0 0.0 0.00 0.03 0.00 94 1010.5
20260510050053 48 0 0.0 0.0 0.00 0.03 0.00 94 1010.4
20260510044553 49 0 0.0 0.0 0.00 0.03 0.00 94 1010.5
20260510043051 48 0 0.0 0.0 0.00 0.03 0.00 93 1010.7
20260510041537 49 0 0.0 0.0 0.00 0.03 0.00 93 1010.7
20260510040048 49 0 0.0 0.0 0.00 0.03 0.00 93 1010.8
20260510034544 49 0 0.0 0.0 0.00 0.03 0.03 93 1010.8
20260510033056 50 0 0.0 0.0 0.00 0.03 0.03 93 1010.7
20260510031541 51 0 0.0 0.0 0.00 0.03 0.03 94 1010.6
20260510030100 50 0 0.0 0.0 0.00 0.03 0.03 93 1010.4
20260510024543 51 0 0.0 0.0 0.00 0.03 0.03 92 1010.2
20260510023041 51 0 0.0 0.0 0.00 0.03 0.03 93 1010.4
20260510021544 51 0 0.0 0.0 0.00 0.03 0.03 92 1010.3
20260510020047 51 0 0.0 0.9 0.00 0.03 0.03 92 1010.2
20260510014545 51 0 0.0 0.0 0.00 0.03 0.03 92 1010.2
20260510013044 52 0 0.0 0.0 0.00 0.03 0.03 91 1010.1
20260510011542 52 0 0.0 0.0 0.00 0.03 0.03 90 1010.2
20260510010041 53 0 0.0 0.0 0.00 0.03 0.03 89 1009.9
20260510004541 54 0 0.0 0.0 0.00 0.03 0.03 89 1009.8
20260510003046 54 0 0.0 0.0 0.00 0.03 0.03 87 1009.8
20260510001544 55 0 0.0 0.9 0.00 0.03 0.03 86 1009.6
20260510000049 56 0 0.0 0.9 0.00 0.03 0.03 84 1009.8
20260509234551 57 0 0.0 0.9 0.00 0.03 0.03 83 1009.7
20260509233043 58 0 0.0 0.9 0.00 0.03 0.03 83 1009.8
20260509231539 58 154 0.0 2.6 0.00 0.03 0.03 81 1009.8
20260509230038 60 160 1.7 3.5 0.00 0.03 0.03 79 1009.7
20260509224538 60 146 0.0 3.5 0.00 0.03 0.03 81 1009.7
20260509223044 59 148 0.9 4.3 0.00 0.03 0.03 83 1009.7
20260509221538 58 134 0.9 3.5 0.00 0.03 0.03 86 1009.8
20260509220047 57 179 1.7 4.3 0.00 0.03 0.03 85 1009.7
20260509214549 57 191 1.7 4.3 0.00 0.03 0.03 86 1009.7
20260509213039 57 162 1.7 3.5 0.00 0.03 0.03 85 1009.7
20260509211534 57 163 0.9 1.7 0.00 0.03 0.03 85 1009.7
20260509210036 57 160 0.0 2.6 0.00 0.03 0.03 84 1009.7
20260509204541 57 143 0.9 2.6 0.00 0.03 0.03 83 1009.8
20260509203047 57 0 0.0 2.6 0.00 0.03 0.03 83 1009.8
20260509201552 58 150 0.9 4.3 0.00 0.03 0.03 84 1009.7
20260509200057 57 149 1.7 7.0 0.00 0.03 0.03 85 1009.7
20260509194543 56 137 1.7 4.3 0.02 0.03 0.03 85 1009.8
20260509193113 56 167 2.6 6.1 0.02 0.03 0.03 87 1010.0
20260509191541 56 151 2.6 4.3 0.02 0.03 0.03 88 1010.2
20260509190040 56 155 2.6 5.2 0.02 0.03 0.03 86 1010.4
20260509184541 56 143 3.5 7.0 0.00 0.01 0.01 85 1010.7
20260509183043 56 156 3.5 6.1 0.00 0.01 0.01 83 1010.7
20260509181546 56 145 3.5 5.2 0.00 0.01 0.01 82 1010.8
20260509180039 56 135 3.5 6.1 0.00 0.01 0.01 83 1010.9
20260509174540 57 134 2.6 6.1 0.00 0.01 0.01 82 1011.0
20260509173043 57 162 4.3 7.0 0.00 0.01 0.01 83 1011.2
20260509171553 58 118 2.6 4.3 0.00 0.01 0.01 79 1011.0
20260509170044 58 138 1.7 3.5 0.00 0.01 0.01 81 1010.7
20260509164540 58 137 1.7 4.3 0.01 0.01 0.01 82 1010.8
20260509163039 58 120 1.7 4.3 0.01 0.01 0.01 83 1010.9
20260509161536 58 126 1.7 3.5 0.01 0.01 0.01 82 1011.0
20260509160044 58 129 0.9 5.2 0.01 0.01 0.01 79 1011.4
20260509154546 59 129 0.9 3.5 0.00 0.00 0.00 77 1011.9
20260509153041 60 113 1.7 4.3 0.00 0.00 0.00 77 1011.8
20260509151539 61 133 1.7 4.3 0.00 0.00 0.00 75 1011.9
20260509150046 61 126 1.7 5.2 0.00 0.00 0.00 73 1011.8
20260509144556 61 0 0.9 2.6 0.00 0.00 0.00 72 1011.8
20260509143048 61 0 1.7 6.1 0.00 0.00 0.00 72 1011.6
20260509141544 61 123 3.5 8.7 0.00 0.00 0.00 72 1011.5
20260509140039 60 115 1.7 6.1 0.00 0.00 0.00 75 1011.2
20260509134537 60 43 1.7 6.1 0.00 0.00 0.00 76 1011.3
20260509133038 59 107 0.9 8.7 0.00 0.00 0.00 77 1011.3
20260509131542 58 56 1.7 7.8 0.00 0.00 0.00 77 1011.2
20260509130038 58 343 1.7 8.7 0.00 0.00 0.00 78 1011.3
20260509124552 58 343 0.0 6.1 0.00 0.00 0.00 79 1011.3
20260509123039 57 0 0.0 6.1 0.00 0.00 0.00 80 1011.4
20260509121547 56 0 0.0 4.3 0.00 0.00 0.00 80 1011.5